{"data":{"norad_id":51866,"epoch":"2026-09-19T11:15:13.466304Z","epoch_age_seconds":141325,"freshness":"FRESH","line1":"1 51866U 22022Q   26262.46890586  .00000305  00000+0  20608-4 0  9995","line2":"2 51866  53.1602 208.8148 0001207  95.8262 264.2878 15.33552671252507","mean_motion":15.33552671,"eccentricity":0.0001207,"inclination_deg":53.1602,"raan_deg":208.8148,"arg_perigee_deg":95.8262,"mean_anomaly_deg":264.2878,"bstar":2.0608e-5,"rev_number":25250,"period_min":93.899611485858,"perigee_km":464.39684654595,"apogee_km":466.04883361134,"semimajor_km":6843.3598400786,"source":"CELESTRAK","updated_at":"2026-09-20T09:00:39.947328Z"}}